Monterey, CA

11:04 PM PST on December 03, 2016 (GMT -0800)
Monterey Peninsula

Weather History for KMRY - February, 2013

Change the Weather History Date:

Monday, February 25, 2013

  Actual Average Record
Temperature  
Mean Temperature 47 °F 53 °F  
Max Temperature 56 °F 61 °F 74 °F (2002)
Min Temperature 37 °F 45 °F 37 °F (2013)
Degree Days  
Heating Degree Days 18    
Month to date heating degree days 395  
Since 1 July heating degree days 2220  
Cooling Degree Days 0    
Month to date cooling degree days 0  
Year to date cooling degree days 0  
Moisture  
Dew Point 41 °F    
Average Humidity 74    
Maximum Humidity 89    
Minimum Humidity 59    
Precipitation  
Precipitation 0.00 in - 0.73 in (2004)
Month to date precipitation 0.77  
Year to date precipitation 1.58  
Since 1 July precipitation 9.82  
Sea Level Pressure  
Sea Level Pressure 30.26 in    
Wind  
Wind Speed 5 mph (SSW)    
Max Wind Speed 14 mph    
Max Gust Speed 18 mph    
Visibility 10 miles    
Events      
T = Trace of Precipitation, MM = Missing Value Source: NWS Daily Summary

Daily Weather History Graph

Daily Weather History Graph

Search for Another Location

Airport or City:

Trip Planner

Search our weather history database for the weather conditions in past years. The results will help you decide how hot, cold, wet, or windy it might be!

Date:

Astronomy

Feb. 25, 2013 Rise Set
Actual Time 6:42 AM PST 5:58 PM PST
Civil Twilight 6:16 AM PST 6:24 PM PST
Nautical Twilight 5:46 AM PST 6:54 PM PST
Astronomical Twilight 5:16 AM PST 7:24 PM PST
Moon 6:15 PM PST (2/25) 6:17 AM PST (2/25)
Length of Visible Light 12h 07m
Length of Day
11h 15m
Full, 100% of the Moon is Illuminated
Feb 25
Full
Feb 25
Full
Mar 4
Last Quarter
Mar 11
New
Mar 19
First Quarter

Hourly Weather History & Observations

Time (PST) Temp. Windchill Dew Point Humidity Pressure Visibility Wind Dir Wind Speed Gust Speed Precip Events Conditions
12:54 AM 42.1 °F - 33.1 °F 70% 30.32 in 10.0 mi Calm Calm - N/A   Clear
1:54 AM 45.0 °F 42.6 °F 41.0 °F 86% 30.32 in 10.0 mi South 4.6 mph - N/A   Clear
2:54 AM 42.1 °F 39.2 °F 32.0 °F 67% 30.31 in 10.0 mi East 4.6 mph - N/A   Clear
3:54 AM 39.0 °F 35.7 °F 30.9 °F 73% 30.31 in 10.0 mi SE 4.6 mph - N/A   Clear
4:54 AM 37.0 °F 31.6 °F 30.9 °F 79% 30.32 in 10.0 mi East 6.9 mph - N/A   Clear
5:54 AM 39.9 °F 36.7 °F 33.1 °F 77% 30.30 in 10.0 mi SE 4.6 mph - N/A   Clear
6:54 AM 37.9 °F 35.5 °F 30.9 °F 76% 30.30 in 10.0 mi ESE 3.5 mph - N/A   Clear
7:54 AM 39.9 °F 33.9 °F 32.0 °F 73% 30.31 in 10.0 mi East 9.2 mph - N/A   Clear
8:54 AM 48.9 °F - 42.1 °F 77% 30.32 in 8.0 mi West 4.6 mph - N/A   Clear
9:54 AM 50.0 °F - 43.0 °F 77% 30.31 in 8.0 mi Calm Calm - N/A   Clear
10:54 AM 54.0 °F - 42.1 °F 64% 30.30 in 10.0 mi Calm Calm - N/A   Clear
11:54 AM 53.1 °F - 39.0 °F 59% 30.29 in 10.0 mi West 6.9 mph - N/A   Clear
12:54 PM 52.0 °F - 43.0 °F 71% 30.28 in 10.0 mi WNW 9.2 mph - N/A   Clear
1:54 PM 54.0 °F - 44.1 °F 69% 30.27 in 10.0 mi West 9.2 mph - N/A   Clear
2:54 PM 55.0 °F - 45.0 °F 69% 30.26 in 10.0 mi West 9.2 mph - N/A   Clear
3:54 PM 53.1 °F - 45.0 °F 74% 30.25 in 10.0 mi West 9.2 mph - N/A   Clear
4:54 PM 53.1 °F - 45.0 °F 74% 30.24 in 10.0 mi West 6.9 mph - N/A   Clear
5:24 PM 51.8 °F - 44.6 °F 76% 30.20 in 10.0 mi WSW 8.1 mph - N/A   Mostly Cloudy
6:32 PM 50.0 °F - 44.6 °F 82% 30.20 in 10.0 mi South 5.8 mph - N/A   Partly Cloudy
6:54 PM 50.0 °F - 44.1 °F 80% 30.24 in 10.0 mi South 5.8 mph - N/A   Scattered Clouds
7:03 PM 50.0 °F - 44.6 °F 82% 30.20 in 10.0 mi South 5.8 mph - N/A   Mostly Cloudy
7:54 PM 48.9 °F - 44.1 °F 83% 30.25 in 10.0 mi SSW 6.9 mph - N/A   Partly Cloudy
8:54 PM 48.0 °F - 43.0 °F 83% 30.25 in 10.0 mi SE 3.5 mph - N/A   Clear
9:26 PM 48.2 °F - 42.8 °F 82% 30.22 in 10.0 mi SSE 5.8 mph - N/A   Partly Cloudy
9:43 PM 48.2 °F - 44.6 °F 87% 30.21 in 10.0 mi South 4.6 mph - N/A   Mostly Cloudy
9:50 PM 48.2 °F - 44.6 °F 87% 30.21 in 10.0 mi SSE 4.6 mph - N/A   Scattered Clouds
9:54 PM 46.9 °F - 43.0 °F 86% 30.25 in 10.0 mi SSE 5.8 mph - N/A   Scattered Clouds
10:50 PM 48.2 °F - 44.6 °F 87% 30.23 in 9.0 mi SW 4.6 mph - N/A   Mostly Cloudy
10:54 PM 48.0 °F - 45.0 °F 89% 30.27 in 8.0 mi SW 3.5 mph - N/A   Mostly Cloudy
11:14 PM 48.2 °F - 44.6 °F 87% 30.23 in 9.0 mi SW 5.8 mph - N/A   Mostly Cloudy
11:25 PM 48.2 °F - 44.6 °F 87% 30.23 in 9.0 mi SSW 4.6 mph - N/A   Scattered Clouds
11:54 PM 46.0 °F 44.8 °F 43.0 °F 89% 30.25 in 9.0 mi South 3.5 mph - N/A   Clear